GW6470 Weather Reports


time (UTC)temp
F
wind
direction
speed
knots
gust
knots
rain 1hr
in
rain 24hr
in
rain mn
in
humidity
%
barometer
mb
20260503213001 89 348 0.0 0.0 0.00 0.00 0.00 33 1009.2
20260503212458 90 357 0.0 0.0 0.00 0.00 0.00 30 1009.3
20260503211955 89 70 0.0 0.0 0.00 0.00 0.00 28 1009.5
20260503211452 87 36 0.0 0.0 0.00 0.00 0.00 30 1009.4
20260503210948 86 279 0.0 0.0 0.00 0.00 0.00 40 1009.5
20260503210446 86 297 0.0 0.0 0.00 0.00 0.00 37 1009.7
20260503205945 86 261 0.0 0.0 0.00 0.00 0.00 39 1009.6
20260503205443 86 296 0.0 0.0 0.00 0.00 0.00 43 1009.7
20260503204938 86 279 0.0 0.0 0.00 0.00 0.00 42 1009.7
20260503204436 85 282 0.0 0.0 0.00 0.00 0.00 40 1009.8
20260503203933 85 266 0.0 0.0 0.00 0.00 0.00 40 1009.9
20260503203430 84 294 0.0 0.0 0.00 0.00 0.00 41 1010.1
20260503202927 84 294 0.0 0.0 0.00 0.00 0.00 51 1010.1
20260503202426 84 276 0.0 0.0 0.00 0.00 0.00 47 1010.2
20260503201924 83 296 0.0 0.0 0.00 0.00 0.00 50 1010.0
20260503201420 83 291 0.0 0.0 0.00 0.00 0.00 42 1010.1
20260503200918 82 290 0.0 0.0 0.00 0.00 0.00 46 1010.3
20260503200414 83 292 0.0 0.0 0.00 0.00 0.00 45 1010.6
20260503195911 82 288 0.0 0.0 0.00 0.00 0.00 43 1010.5
20260503195408 81 292 0.0 0.0 0.00 0.00 0.00 44 1010.6
20260503194905 81 306 0.0 0.0 0.00 0.00 0.00 46 1010.4
20260503194401 81 301 0.0 0.0 0.00 0.00 0.00 48 1010.7
20260503193857 82 270 0.0 0.0 0.00 0.00 0.00 46 1010.7
20260503193353 81 318 0.0 0.0 0.00 0.00 0.00 50 1011.0
20260503192848 81 307 0.0 0.0 0.00 0.00 0.00 50 1010.9
20260503192344 80 242 0.0 0.0 0.00 0.00 0.00 47 1010.9
20260503191841 80 289 0.0 0.0 0.00 0.00 0.00 46 1011.0
20260503191338 80 341 0.0 0.0 0.00 0.00 0.00 48 1011.0
20260503190835 79 292 0.0 0.0 0.00 0.00 0.00 50 1011.0
20260503190332 79 290 0.0 0.0 0.00 0.00 0.00 52 1011.1
20260503185829 79 318 0.0 0.0 0.00 0.00 0.00 49 1011.2
20260503185325 79 289 0.0 0.0 0.00 0.00 0.00 49 1011.2
20260503184825 79 12 0.0 0.0 0.00 0.00 0.00 54 1011.4
20260503184322 78 280 0.0 0.0 0.00 0.00 0.00 51 1011.3
20260503183817 78 16 0.0 0.0 0.00 0.00 0.00 53 1011.5
20260503183315 78 292 0.0 0.0 0.00 0.00 0.00 53 1011.5
20260503182812 77 299 0.0 0.0 0.00 0.00 0.00 56 1011.6
20260503182312 77 287 0.0 0.0 0.00 0.00 0.00 53 1011.5
20260503181808 77 21 0.0 0.0 0.00 0.00 0.00 55 1011.5
20260503181305 77 285 0.0 0.0 0.00 0.00 0.00 50 1011.7
20260503180801 78 350 0.0 0.0 0.00 0.00 0.00 48 1011.7
20260503180300 78 65 0.0 0.0 0.00 0.00 0.00 54 1011.9
20260503175755 77 39 0.0 0.0 0.00 0.00 0.00 54 1011.8
20260503175254 76 341 0.0 0.0 0.00 0.00 0.00 54 1011.9
20260503174754 76 56 0.0 0.0 0.00 0.00 0.00 56 1011.7
20260503174253 76 62 0.0 0.0 0.00 0.00 0.00 53 1012.1
20260503173753 75 72 0.0 0.0 0.00 0.00 0.00 58 1012.1
20260503173250 75 326 0.0 0.0 0.00 0.00 0.00 56 1012.0
20260503172747 74 24 0.0 0.0 0.00 0.00 0.00 58 1011.9
20260503172244 73 265 0.0 0.0 0.00 0.00 0.00 55 1012.2
20260503171740 73 36 0.0 0.0 0.00 0.00 0.00 56 1012.1
20260503171237 74 340 0.0 0.0 0.00 0.00 0.00 61 1012.1
20260503170734 73 66 0.0 0.0 0.00 0.00 0.00 59 1012.1
20260503170231 73 22 0.0 0.0 0.00 0.00 0.00 60 1012.2
20260503160153 67 81 0.0 0.0 0.00 0.00 0.00 70 1012.4
20260503150623 59 80 0.0 0.0 0.00 0.00 0.00 85 1012.6
20260503150119 58 80 0.0 0.0 0.00 0.00 0.00 87 1012.7
20260503131013 48 33 0.0 0.0 0.00 0.00 0.00 98 1012.3
20260503130510 48 33 0.0 0.0 0.00 0.00 0.00 98 1012.2
20260503110407 50 338 0.0 0.0 0.00 0.00 0.00 97 1012.7
20260503090258 52 17 0.0 0.0 0.00 0.00 0.00 96 1012.8
20260503081225 53 19 0.0 0.0 0.00 0.00 0.00 95 1012.8
20260503080720 53 17 0.0 0.0 0.00 0.00 0.00 95 1012.9
20260503080218 53 37 0.0 0.0 0.00 0.00 0.00 95 1012.6
20260503072654 54 41 0.0 0.0 0.00 0.00 0.00 94 1013.0
20260503072151 54 339 0.0 0.0 0.00 0.00 0.00 94 1012.7
20260503071648 54 316 0.0 0.0 0.00 0.00 0.00 94 1012.9
20260503071145 53 291 0.0 0.0 0.00 0.00 0.00 93 1012.9
20260503070642 54 240 0.0 0.0 0.00 0.00 0.00 93 1012.9
20260503070140 55 274 0.0 0.0 0.00 0.00 0.00 93 1013.1
20260503060104 58 182 0.0 0.0 0.00 0.00 0.00 89 1012.9
20260503055055 58 227 0.0 0.0 0.00 0.00 0.00 89 1012.8
20260503054551 58 147 0.0 0.0 0.00 0.00 0.00 89 1012.7
20260503054048 58 165 0.0 0.0 0.00 0.00 0.00 89 1012.9
20260503053546 58 233 0.0 0.0 0.00 0.00 0.00 89 1013.0
20260503053044 57 218 0.0 0.0 0.00 0.00 0.00 89 1012.9
20260503052540 58 297 0.0 0.0 0.00 0.00 0.00 89 1012.8
20260503052037 59 7 0.0 0.0 0.00 0.00 0.00 87 1012.9
20260503051532 59 45 0.0 0.0 0.00 0.00 0.00 87 1013.1
20260503051031 59 56 0.0 0.0 0.00 0.00 0.00 87 1013.2
20260503050526 59 89 0.0 0.0 0.00 0.00 0.00 86 1012.9
20260503050024 59 70 0.0 0.0 0.00 0.00 0.00 87 1012.9
20260503045521 59 73 0.0 0.0 0.00 0.00 0.00 86 1012.9
20260503045018 60 303 0.0 0.0 0.00 0.00 0.00 86 1013.0
20260503044514 60 286 0.0 0.0 0.00 0.00 0.00 85 1012.6
20260503044012 59 288 0.0 0.0 0.00 0.00 0.00 88 1012.7
20260503043508 60 296 0.0 0.0 0.00 0.00 0.00 87 1013.0
20260503043004 61 288 0.0 0.0 0.00 0.00 0.00 86 1012.9
20260503042501 61 16 0.0 0.0 0.00 0.00 0.00 84 1013.0
20260503041958 61 340 0.0 0.0 0.00 0.00 0.00 84 1013.2
20260503041455 61 25 0.0 0.0 0.00 0.00 0.00 84 1013.2
20260503040953 61 25 0.0 0.0 0.00 0.00 0.00 83 1013.1
20260503040449 62 25 0.0 0.0 0.00 0.00 0.00 83 1013.0
20260503035947 61 25 0.0 0.0 0.00 0.00 0.00 83 1012.7
20260503035443 62 24 0.0 0.0 0.00 0.00 0.00 83 1013.0
20260503034941 62 344 0.0 0.0 0.00 0.00 0.00 83 1012.7
20260503034438 62 17 0.0 0.0 0.00 0.00 0.00 83 1012.7
20260503033935 62 5 0.0 0.0 0.00 0.00 0.00 83 1012.5
20260503033432 62 9 0.0 0.0 0.00 0.00 0.00 82 1012.6
20260503032930 62 11 0.0 0.0 0.00 0.00 0.00 83 1012.5
20260503032429 62 13 0.0 0.0 0.00 0.00 0.00 84 1012.4
20260503031926 62 13 0.0 0.0 0.00 0.00 0.00 85 1012.5
20260503031424 63 5 0.0 0.0 0.00 0.00 0.00 80 1012.5
20260503030920 64 339 0.0 0.0 0.00 0.00 0.00 77 1012.3
20260503030417 64 92 0.0 0.0 0.00 0.00 0.00 79 1012.6
20260503025914 64 311 0.0 0.0 0.00 0.00 0.00 76 1012.2
20260503025411 64 141 0.0 0.0 0.00 0.00 0.00 76 1012.5
20260503024908 65 161 0.0 0.0 0.00 0.00 0.00 75 1012.4
20260503024405 65 182 0.0 0.0 0.00 0.00 0.00 74 1012.6
20260503023902 65 118 0.0 0.0 0.00 0.00 0.00 75 1012.7
20260503023359 66 209 0.0 0.0 0.00 0.00 0.00 74 1012.5
20260503022856 66 198 0.0 0.0 0.00 0.00 0.00 74 1012.5
20260503022355 66 174 0.0 0.0 0.00 0.00 0.00 74 1012.5
20260503021852 67 218 0.0 0.0 0.00 0.00 0.00 73 1012.7
20260503021348 67 337 0.0 0.0 0.00 0.00 0.00 73 1012.4
20260503020846 67 304 0.0 0.0 0.00 0.00 0.00 75 1012.4
20260503020344 67 91 0.0 0.0 0.00 0.00 0.00 75 1012.2
20260503015840 68 91 0.0 0.0 0.00 0.00 0.00 72 1012.0
20260503015337 68 92 0.0 0.0 0.00 0.00 0.00 73 1012.0
20260503014832 68 142 0.0 0.0 0.00 0.00 0.00 74 1012.0
20260503014330 68 85 0.0 0.0 0.00 0.00 0.00 74 1011.9
20260503013828 68 93 0.0 0.0 0.00 0.00 0.00 75 1012.0
20260503013325 68 194 0.0 0.0 0.00 0.00 0.00 71 1012.0
20260503012822 68 119 0.0 0.0 0.00 0.00 0.00 73 1011.8
20260503012320 68 183 0.0 0.0 0.00 0.00 0.00 72 1011.8
20260503011816 68 189 0.0 0.0 0.00 0.00 0.00 70 1011.9
20260503011313 68 194 0.0 0.0 0.00 0.00 0.00 70 1012.0
20260503010809 69 196 0.0 0.0 0.00 0.00 0.00 69 1011.7
20260503010307 68 81 0.0 0.0 0.00 0.00 0.00 68 1011.8
20260503005804 68 198 0.0 0.0 0.00 0.00 0.00 68 1011.7
20260503005301 68 94 0.0 0.0 0.00 0.00 0.00 70 1011.8
20260503004756 68 236 0.0 0.0 0.00 0.00 0.00 67 1012.0
20260503004255 68 193 0.0 0.0 0.00 0.00 0.00 67 1011.7
20260503003752 68 239 0.0 0.0 0.00 0.00 0.00 67 1011.6
20260503003249 69 204 0.0 0.0 0.00 0.00 0.00 69 1012.0
20260503002746 69 79 0.0 0.0 0.00 0.00 0.00 68 1011.9
20260503002243 68 38 0.0 0.0 0.00 0.00 0.00 66 1011.8
20260503001739 68 62 0.0 0.0 0.00 0.00 0.00 66 1011.7
20260503001235 69 23 0.0 0.0 0.00 0.00 0.00 66 1011.8
20260503000733 69 74 0.0 0.0 0.00 0.00 0.00 66 1011.9
20260503000230 69 80 0.0 0.0 0.00 0.00 0.00 67 1011.9
20260502235727 70 58 0.0 0.0 0.00 0.00 0.00 69 1011.9
20260502235225 69 25 0.0 0.0 0.00 0.00 0.00 64 1011.8
20260502234721 69 62 0.0 0.0 0.00 0.00 0.00 64 1012.3
20260502234218 69 22 0.0 0.0 0.00 0.00 0.00 63 1012.0
20260502233714 70 284 0.0 0.0 0.00 0.00 0.00 62 1012.3
20260502233211 69 247 0.0 0.0 0.00 0.00 0.00 63 1012.4
20260502232707 69 112 0.0 0.0 0.00 0.00 0.00 62 1012.5
20260502232204 69 85 0.0 0.0 0.00 0.00 0.00 65 1012.5
20260502231701 69 291 0.0 0.0 0.00 0.00 0.00 63 1012.6
20260502231159 69 256 0.0 0.0 0.00 0.00 0.00 65 1012.5
20260502230657 69 307 0.0 0.0 0.00 0.00 0.00 65 1012.8
20260502230155 68 346 0.0 0.0 0.00 0.00 0.00 65 1012.6
20260502225650 67 109 0.0 0.0 0.00 0.00 0.00 66 1012.7
20260502225148 68 161 0.0 0.0 0.00 0.00 0.00 65 1012.8
20260502224644 68 47 0.0 0.0 0.00 0.00 0.00 67 1012.8
20260502224141 68 279 0.0 0.0 0.00 0.00 0.00 65 1013.2
20260502223638 67 276 0.0 0.0 0.00 0.00 0.00 66 1013.1
20260502223137 67 228 0.0 0.0 0.00 0.00 0.00 67 1013.2
20260502222634 66 250 0.0 0.0 0.00 0.00 0.00 68 1013.3
20260502222130 65 238 0.0 0.0 0.00 0.00 0.00 70 1013.4
20260502221626 66 104 0.0 0.0 0.00 0.00 0.00 68 1013.5
20260502221123 66 247 0.0 0.0 0.00 0.00 0.00 68 1013.6
20260502220620 67 224 0.0 0.0 0.00 0.00 0.00 67 1013.5
20260502220116 67 64 0.0 0.0 0.00 0.00 0.00 66 1013.7
20260502215613 67 12 0.0 0.0 0.00 0.00 0.00 66 1013.8
20260502215110 67 8 0.0 0.0 0.00 0.00 0.00 67 1014.0
20260502214607 67 19 0.0 0.0 0.00 0.00 0.00 65 1013.7
20260502214104 67 4 0.0 0.0 0.00 0.00 0.00 64 1013.8
20260502213601 67 7 0.0 0.0 0.00 0.00 0.00 66 1013.9